User: anonymous   Login
Location: Cheyres
(46.8153°N, 6.7877°E)
Time: 01:34:57
(UTC+00:00)
Language:

Gbstr 26 Del rocket - Orbit

View from above orbital plane
View from above orbital plane
View from above satellite
View from above satellite

Ground track
Ground track

The orbit data is extracted from the following two-line orbital elements,

1 25876U 99041E   21337.46962750 -.00000040  00000-0  35194-4 0  9997
2 25876  51.7647   1.8469 0531253 101.8068 264.2929 14.04685765143706
Epoch (UTC): 03 December 2021 11:16:15
Eccentricity: 0.0531253
inclination: 51.7647°
perigee height: 492 km
apogee height: 1263 km
right ascension of ascending node: 1.8469°
argument of perigee: 101.8068°
revolutions per day: 14.04685765
mean anomaly at epoch: 264.2929°
orbit number at epoch: 14370

The dashed part of the orbit path shows where the satellite is in the earth's shadow,  

DLR